Location: Catstown
(52.4386°N, 7.2633°W)
Time: 03:07:47
(UTC+00:00)

Meteor 2-9 Rocket - Pass Details

Date: 18 September 2020
Orbit: 791 x 896 km, 81.3° (Epoch: 18 October)

Event Time Altitude Azimuth Distance (km) Brightness Sun altitude
Rises 19:33:57 0° 191° (S) 3,499 7.4 -9.5°
Reaches altitude 10° 19:36:24 10° 191° (S) 2,561 6.7 -9.9°
Maximum altitude 19:42:16 90° 285° (WNW) 895 4.3 -10.8°
Drops below altitude 10° 19:48:05 10° 13° (NNE) 2,537 6.8 -11.6°
Sets 19:50:30 0° 14° (NNE) 3,466 7.5 -12.0°
